Dewpoint
55 55 55 55 55 55 55 55 55 56 56 56 56 56 56 56 56 56 56 56 56 56 56 56 56 56 56 56 56 56 57 55 53 52 50 41 50 53 66 63 65 66 69 62 63 61 58 57 54 52 46 46 49 52 54 57 65 65 60 56 55 57 59 61 60 62 64 62 63 64 64 63 63 65 67 68 62 62 60 60 61 62 62 63 64 65 66 66
55 55 55 55 55 55 55 55 55 55 56 56 56 56 56 56 56 56 56 56 56 56 56 56 56 56 56 56 56 57 56 55 51 51 48 53 58 60 62 66 66 65 69 54 58 55 54 54 53 49 44 46 53 53 55 55 62 61 58 57 55 59 61 63 64 64 63 63 64 64 66 64 62 64 66 61 59 59 59 60 60 61 62 64 65 65 65 66
55 55 55 55 55 55 55 55 55 55 55 55 55 55 56 56 56 56 56 56 56 56 56 55 56 56 56 56 57 58 56 53 52 50 49 63 61 63 65 67 71 66 66 52 49 54 48 51 50 45 46 49 52 51 55 57 60 61 58 56 58 63 62 63 64 64 66 64 63 64 66 64 65 66 69 59 58 59 58 59 60 61 62 63 64 65 65 65
55 55 55 55 55 55 55 55 55 55 55 55 55 55 56 56 56 56 56 56 56 56 55 55 56 56 56 57 57 56 55 52 46 44 48 67 64 68 65 66 70 66 62 43 41 48 49 48 47 48 48 49 52 52 52 57 59 62 59 58 59 64 64 65 64 67 65 64 63 64 65 63 65 67 66 59 57 58 59 60 61 61 62 63 64 65 64 65
55 55 55 55 55 55 55 55 55 55 55 55 55 55 55 56 56 56 56 56 56 55 55 55 56 57 57 57 57 55 51 42 37 48 60 72 66 69 67 67 69 65 55 41 42 46 47 48 49 49 53 52 54 52 52 55 59 61 58 63 62 64 63 66 67 67 65 65 64 64 62 62 67 66 64 58 56 56 58 60 62 63 63 63 64 64 64 65
55 55 55 55 55 55 55 55 55 55 55 55 55 55 55 55 55 55 56 56 55 55 55 56 56 56 57 57 55 55 45 38 43 39 76 74 67 67 65 69 68 62 48 38 39 42 44 46 48 48 49 52 49 50 48 50 60 57 62 59 61 63 65 67 66 66 66 65 64 62 63 65 63 62 64 61 57 60 60 61 63 63 63 64 64 64 64 64
55 55 55 55 55 55 55 55 55 55 55 55 55 55 55 55 55 55 55 55 55 55 55 56 56 56 57 58 54 52 32 20 38 35 66 74 69 66 68 67 70 50 41 36 38 42 43 46 47 48 50 47 48 44 45 50 59 58 57 61 65 63 64 66 65 67 66 64 63 65 66 63 61 59 63 62 65 68 62 63 63 63 63 64 63 63 63 64
55 55 55 55 55 55 55 55 55 55 55 55 55 55 55 55 55 55 55 55 54 55 55 56 56 56 57 54 50 43 42 27 27 51 71 71 66 63 68 67 54 42 37 34 36 41 43 45 47 50 49 46 41 42 42 48 58 57 59 61 64 65 66 66 65 66 67 66 67 67 64 63 61 60 64 62 67 63 62 62 63 63 63 63 63 63 63 64
55 55 55 55 55 55 55 55 55 55 55 55 55 55 55 55 55 55 55 55 55 55 55 56 56 56 57 54 44 27 13 33 44 69 71 66 61 65 60 60 44 39 36 33 35 38 45 45 47 51 48 48 47 41 43 56 56 60 63 62 63 64 66 66 65 66 66 66 66 64 65 65 65 65 63 65 66 61 62 62 62 62 62 62 62 63 63 63
55 55 55 55 55 55 55 55 55 55 55 55 55 55 55 55 55 55 55 55 55 55 55 56 56 57 55 52 43 11 10 38 64 66 63 59 61 60 53 54 41 36 32 31 32 35 44 47 47 50 51 47 45 38 53 56 57 61 62 63 64 65 66 66 64 65 66 65 66 64 63 63 64 65 59 66 61 61 62 61 62 62 62 62 62 63 63 63
55 55 55 55 55 55 55 55 55 55 55 55 55 55 55 55 55 55 55 55 55 55 55 56 56 55 50 52 23 8 14 51 60 58 60 59 57 53 48 48 41 33 31 31 30 33 42 48 49 51 51 44 38 34 49 54 61 62 62 62 63 64 65 66 66 65 66 65 66 65 62 63 64 63 60 62 60 62 61 61 61 61 61 61 62 62 63 63
55 55 55 55 55 55 55 55 55 55 55 55 55 54 55 55 55 55 55 55 56 56 56 57 57 55 53 50 33 15 33 50 57 56 57 53 50 49 46 47 40 33 31 29 29 30 37 44 49 53 46 50 41 37 52 62 62 62 61 60 61 63 63 65 64 64 64 64 66 65 61 60 61 60 63 60 59 61 61 60 60 60 61 61 61 62 62 62
55 55 55 55 55 55 55 55 55 55 55 54 54 54 54 55 54 55 55 55 57 57 57 58 56 55 52 35 33 39 38 38 53 53 52 49 47 44 43 43 40 35 32 28 27 30 33 38 50 53 53 50 36 30 50 61 61 60 60 60 60 60 61 64 65 65 64 65 66 65 53 57 61 63 67 61 59 59 59 59 59 59 60 60 61 61 61 62
55 55 55 55 55 55 55 55 55 55 54 54 54 54 54 54 54 55 56 56 57 59 58 58 55 53 46 26 28 41 42 36 40 51 51 51 45 45 44 39 40 37 35 35 44 43 38 44 48 52 53 48 39 34 59 58 59 57 60 59 56 56 57 63 63 64 62 65 65 66 55 57 61 63 64 61 59 57 58 58 58 58 59 59 60 60 60 60
56 55 55 55 55 55 55 55 55 54 54 54 54 54 54 53 54 56 57 57 59 58 59 58 55 52 42 30 34 38 56 38 34 39 49 44 40 40 43 35 37 36 32 33 40 47 49 48 47 44 38 42 43 40 55 54 57 58 54 53 56 54 57 62 63 63 61 63 65 62 55 56 60 62 64 63 58 58 57 57 57 57 58 59 59 59 59 59
56 55 55 55 55 55 55 55 55 54 54 54 53 53 54 54 55 57 58 58 57 58 57 53 54 53 40 28 22 44 49 39 38 35 46 43 33 34 41 33 32 33 32 29 33 38 43 45 42 37 33 30 28 36 47 53 53 54 52 53 54 55 57 59 62 64 64 64 65 62 55 59 60 63 66 65 59 58 56 56 56 57 58 58 58 58 57 58
56 56 56 55 55 55 55 55 54 54 54 53 53 53 54 55 57 58 58 58 58 57 56 49 49 54 26 30 35 37 41 46 43 34 39 40 29 29 32 30 28 27 27 30 39 39 42 40 38 37 30 27 29 35 49 47 48 50 51 53 55 53 56 57 62 64 64 63 61 63 59 58 60 63 65 65 60 58 56 56 56 56 57 57 57 57 56 58
55 55 56 55 55 55 55 54 54 54 53 53 53 53 52 54 56 57 58 58 57 56 55 54 50 45 34 28 28 36 38 38 37 34 35 36 28 33 31 31 34 29 32 34 37 36 37 34 28 26 26 27 27 27 44 44 48 48 47 52 54 55 55 57 58 61 63 63 61 61 59 60 60 63 64 65 65 58 56 56 56 56 56 57 57 57 56 56
55 55 55 55 55 55 54 54 54 54 53 53 53 54 55 55 55 50 46 51 47 36 25 40 43 31 11 18 26 32 34 39 37 32 32 32 32 37 37 41 33 33 35 34 34 35 33 28 28 27 24 25 25 26 29 35 43 48 48 51 54 54 56 55 59 63 62 61 60 60 57 59 60 62 64 66 65 56 56 56 56 56 56 56 56 56 55 55
56 55 55 55 55 55 54 54 54 53 52 51 49 52 51 47 43 44 49 48 45 33 29 32 40 39 33 30 30 31 34 35 35 33 31 32 33 34 37 41 37 35 34 33 33 31 30 27 25 25 25 24 25 26 26 31 27 30 45 52 53 54 55 59 61 62 64 60 59 59 58 60 60 61 62 65 64 56 59 56 56 56 56 56 55 55 54 53
56 55 55 55 55 55 54 54 53 52 51 50 49 44 33 42 31 28 41 42 42 41 36 35 38 34 29 33 35 34 33 32 36 34 33 39 35 32 34 37 35 34 33 34 30 33 30 28 26 25 26 25 24 26 26 28 27 30 49 52 53 53 53 58 60 61 63 59 58 60 58 59 59 62 63 65 65 58 60 57 55 55 56 55 55 54 53 52
55 55 55 55 54 54 54 53 53 52 51 50 50 42 41 40 36 35 34 29 29 38 39 37 37 37 38 37 37 37 37 34 33 33 39 37 36 30 33 33 32 33 32 30 30 28 30 27 27 27 26 26 25 24 24 24 24 29 33 52 52 54 59 60 60 60 60 59 58 59 58 58 60 61 62 63 63 64 64 64 55 54 55 55 53 53 52 52
55 55 55 55 54 53 53 53 52 51 50 49 45 47 41 39 39 38 33 30 27 31 37 38 38 37 36 38 38 38 35 33 31 32 37 37 35 32 33 30 31 30 30 28 28 29 30 26 28 29 27 24 23 23 23 22 21 19 26 51 50 55 54 54 59 59 59 58 57 58 58 59 61 61 61 62 64 64 66 65 66 56 54 53 52 52 51 52
55 55 55 54 54 53 53 52 51 50 48 49 45 42 42 40 38 37 28 25 23 24 29 35 36 38 37 33 36 37 33 32 31 30 45 35 35 33 32 29 29 28 28 28 27 25 26 27 28 31 27 23 23 22 22 19 18 18 18 42 48 55 52 55 57 58 59 60 59 58 57 57 59 59 60 62 64 64 65 66 64 65 66 64 64 60 53 52
55 55 55 54 53 53 51 51 48 48 48 48 46 46 44 43 44 38 28 26 25 25 28 28 35 34 33 38 36 32 31 33 32 34 42 34 32 32 31 31 29 27 27 27 27 25 25 25 28 26 27 23 22 20 18 18 18 14 14 23 47 55 54 57 56 55 55 55 58 55 50 52 57 59 59 61 62 62 64 64 63 64 64 64 62 60 59 55
55 55 55 54 54 53 51 47 47 46 46 43 41 40 39 38 40 37 30 25 21 23 21 21 25 21 22 20 29 29 30 30 32 32 36 34 38 31 30 27 29 27 27 26 25 26 26 27 24 23 24 24 20 19 21 16 14 14 13 14 36 53 56 56 55 54 51 50 55 57 49 46 56 57 59 60 61 61 62 63 63 64 64 64 64 63 58 54
55 54 54 53 53 51 41 39 49 48 40 36 37 39 41 41 41 31 27 27 22 25 20 22 22 18 20 23 29 31 26 28 31 36 37 44 32 38 27 26 28 32 28 27 26 21 24 24 23 23 23 22 22 20 20 15 14 14 15 22 44 54 56 56 55 53 51 54 56 57 53 48 48 55 59 60 59 60 60 61 62 63 64 64 65 65 64 55
55 54 53 52 52 51 46 49 47 43 40 39 43 43 43 46 36 32 30 20 15 21 15 17 14 21 19 19 31 27 27 24 29 31 34 37 34 32 29 27 24 25 27 25 21 22 21 21 21 21 22 20 20 21 23 17 15 16 33 43 53 54 55 55 54 51 52 52 51 54 54 48 48 54 59 59 57 58 59 60 61 61 63 63 65 66 66 65
54 54 53 52 51 50 51 50 48 42 44 45 45 43 42 39 29 28 27 19 17 14 18 14 16 22 19 21 24 24 23 26 25 28 34 35 34 30 29 29 28 28 28 25 22 22 24 20 19 21 20 19 20 20 20 18 17 20 52 54 54 55 55 54 50 51 51 48 47 51 53 46 47 54 55 57 57 57 59 61 62 61 62 63 63 65 67 66
54 53 53 52 50 50 50 50 48 47 48 47 45 43 41 37 31 29 23 13 14 11 15 14 13 14 20 19 20 21 23 22 29 33 32 31 32 29 30 31 29 28 25 27 24 22 22 38 38 20 19 19 20 20 18 18 18 50 53 53 52 52 51 53 51 51 47 42 45 49 51 47 44 52 54 54 54 58 60 62 63 62 63 64 64 65 67 67
52 52 52 51 48 49 48 39 39 46 48 46 43 39 38 36 33 28 20 15 17 14 16 12 10 17 15 17 17 19 20 18 29 30 29 28 26 28 27 26 25 25 25 24 23 23 24 23 25 27 26 22 20 19 19 18 34 50 46 52 49 49 46 49 48 51 42 41 44 48 50 48 41 46 54 55 58 59 61 60 61 62 63 63 64 66 66 66
51 50 51 50 50 52 41 33 37 42 43 45 43 37 34 30 29 23 20 29 16 16 12 11 13 15 16 18 18 17 16 14 27 29 27 26 25 26 25 24 25 26 21 23 20 24 21 21 21 20 46 20 19 17 18 22 29 46 49 49 48 44 45 42 45 43 38 37 38 49 49 47 48 51 56 56 56 59 59 61 62 62 62 63 63 66 66 68
50 50 50 51 52 50 50 45 47 46 46 46 41 37 33 28 17 28 25 21 16 16 12 14 10 11 15 16 17 18 16 14 16 27 27 20 24 25 25 24 24 21 20 29 22 20 20 22 22 21 24 31 20 15 23 26 29 47 47 45 42 40 38 35 39 38 36 45 48 49 49 46 50 54 59 59 60 63 61 61 64 64 64 64 65 66 67 68
50 50 49 51 51 50 50 53 49 48 46 50 38 37 35 22 19 53 31 25 18 19 16 14 12 12 15 14 15 14 14 14 24 23 21 20 20 23 23 22 23 22 23 27 17 19 20 18 20 23 20 27 25 22 23 26 28 44 46 43 42 38 34 33 37 36 35 44 46 50 46 43 48 52 59 62 62 63 64 64 63 64 65 65 68 68 68 67
50 50 50 51 52 51 51 50 48 49 45 39 37 34 27 23 29 25 22 21 18 17 12 12 9 11 13 11 12 13 13 12 20 17 16 14 12 18 20 18 21 22 23 18 25 26 18 20 22 23 23 28 24 29 26 24 24 26 33 36 38 38 36 33 37 37 44 44 44 48 48 52 53 57 60 62 61 62 63 64 66 65 65 66 66 67 67 67
49 51 49 50 51 50 51 51 48 47 40 38 38 31 26 29 21 23 19 21 15 12 13 13 13 8 10 11 15 15 13 10 12 16 15 13 16 17 18 16 20 18 17 16 25 19 26 20 23 25 30 29 27 30 29 26 24 26 28 28 31 33 35 38 45 46 46 46 46 51 50 53 55 58 58 60 61 61 62 63 64 65 65 65 65 66 67 67
49 50 44 45 51 52 50 49 47 43 40 37 34 29 33 33 26 21 46 21 12 13 14 12 15 10 13 10 18 19 17 12 17 14 17 17 18 18 18 18 22 21 19 17 20 22 19 20 24 26 26 25 29 28 27 27 29 24 28 27 29 27 32 35 39 40 41 42 46 49 47 49 51 48 58 58 59 59 60 61 63 65 64 63 64 66 67 67
50 50 53 53 45 49 48 47 44 40 37 37 34 42 40 29 27 21 16 14 16 15 13 15 18 20 22 20 18 20 20 18 19 16 19 19 16 19 19 18 19 20 20 21 19 23 20 17 18 20 25 21 23 23 21 22 23 25 22 22 24 27 26 29 41 37 37 40 43 47 48 49 50 51 56 57 58 58 58 60 62 63 64 64 64 66 67 68
50 44 36 38 45 48 47 47 41 41 38 35 35 31 45 31 28 21 18 18 18 16 13 15 18 22 21 22 22 22 22 18 21 21 23 19 18 20 18 19 19 22 23 21 19 26 25 17 21 20 21 19 22 24 21 19 18 22 29 25 28 27 29 24 30 39 41 41 43 43 48 45 50 52 55 56 58 58 58 59 60 62 63 64 64 65 66 67
40 34 34 40 42 48 48 44 39 36 35 28 31 35 29 27 23 21 15 22 19 20 23 19 23 22 24 25 23 20 22 21 20 20 21 23 20 21 16 19 21 20 23 27 22 25 20 24 18 17 18 19 22 24 22 19 18 21 22 21 20 28 28 22 29 42 41 43 42 41 40 44 50 55 58 58 58 58 58 58 60 61 62 64 64 65 66 66
46 36 35 39 48 47 41 37 32 34 32 36 34 31 28 25 29 20 17 21 20 22 20 20 20 21 24 24 20 23 22 22 24 23 22 23 17 17 18 18 22 20 24 23 24 26 26 26 19 26 15 15 16 21 19 18 18 19 19 21 20 20 20 20 20 36 43 42 38 39 37 47 54 58 58 58 58 57 59 59 60 61 62 63 64 65 66 66
33 30 30 38 45 42 38 34 31 39 32 31 27 30 28 39 23 18 19 21 21 20 24 23 24 24 26 26 24 27 23 26 25 21 20 19 19 16 15 18 21 22 22 23 23 26 27 31 25 19 16 14 16 19 27 20 18 18 17 18 21 21 22 23 22 38 44 45 45 43 43 47 56 58 60 58 57 58 60 59 59 60 61 61 63 64 65 65
38 32 37 41 39 31 27 30 43 39 33 32 36 29 29 25 20 20 19 19 21 22 22 21 22 23 25 25 26 23 26 24 26 21 22 19 17 16 18 17 18 24 21 21 29 31 55 31 26 29 33 29 18 18 24 24 17 16 16 21 20 20 24 20 25 41 43 44 42 41 43 48 55 58 59 59 56 56 56 57 59 60 60 61 62 63 64 65
39 39 41 43 43 34 30 28 29 29 37 40 32 26 28 26 20 17 16 17 21 21 21 21 22 23 24 26 23 23 28 22 26 25 23 24 18 18 25 16 18 19 26 26 30 29 32 34 29 27 20 20 18 26 26 28 19 20 15 22 26 36 41 40 43 43 42 43 43 40 41 47 53 58 57 56 54 54 55 55 57 57 60 61 61 61 62 64
47 46 44 45 50 33 30 28 28 31 39 32 28 26 20 18 21 19 18 17 19 19 21 20 24 25 23 26 27 24 24 22 27 23 22 25 20 23 15 16 19 27 29 39 48 44 31 36 30 19 18 16 13 15 19 27 21 21 22 25 41 43 43 42 40 40 36 42 44 43 45 51 55 56 55 54 54 53 54 54 56 57 58 59 60 60 61 62
41 35 39 39 38 28 31 34 29 28 30 33 28 28 26 24 23 21 18 19 23 24 21 22 24 26 27 27 29 30 27 23 22 25 25 22 22 19 17 17 25 38 52 47 48 42 36 39 36 31 25 21 24 29 31 40 20 15 18 27 34 39 41 42 42 40 38 42 43 45 49 50 52 54 54 53 53 53 53 54 54 56 57 57 57 58 59 61
45 37 36 36 39 32 26 29 29 30 26 34 26 28 29 22 24 21 21 19 18 28 30 28 27 26 27 28 32 31 33 25 30 23 26 23 23 19 23 22 20 40 52 39 42 44 38 27 28 39 32 26 28 25 19 29 15 18 23 26 33 40 42 41 39 38 44 44 37 46 51 50 51 53 53 52 52 53 53 54 54 55 56 56 56 57 59 59
36 40 39 42 33 29 31 22 21 29 33 30 29 27 29 25 21 27 22 24 23 28 25 32 32 33 33 34 35 33 36 31 32 30 32 31 30 28 23 23 21 36 39 25 34 36 35 28 28 25 20 20 19 17 17 16 16 21 25 28 32 37 41 41 44 44 45 41 41 48 51 50 51 52 52 52 52 53 53 54 54 55 55 55 55 55 55 56
44 45 44 47 36 38 32 33 32 31 31 37 38 26 23 21 20 22 24 25 27 30 32 31 29 32 34 38 37 36 37 29 27 35 31 29 30 30 23 25 26 27 27 28 28 40 33 29 38 28 26 17 20 17 17 20 25 30 36 43 43 43 44 45 45 47 46 46 48 50 50 50 51 51 51 52 53 54 55 56 54 54 54 54 54 54 54 54
40 43 44 48 48 46 46 36 36 29 26 38 26 30 23 24 21 23 23 27 32 31 33 30 29 30 35 35 40 36 37 35 32 25 30 33 27 31 27 26 22 27 29 28 30 26 37 36 42 31 27 19 20 22 18 20 24 25 25 35 46 47 47 48 48 49 50 49 49 49 49 49 50 51 51 53 54 54 54 54 55 53 53 54 54 54 53 53
48 48 47 46 44 45 47 36 36 35 30 28 29 30 37 27 25 27 28 28 32 34 35 29 27 28 29 27 28 33 34 38 38 30 27 29 24 27 25 26 28 27 29 26 29 33 35 41 35 33 26 19 19 21 16 20 20 22 24 25 24 42 46 47 47 48 48 47 48 48 47 47 49 51 51 52 52 52 52 53 53 54 53 53 53 54 53 52
51 50 52 48 42 51 39 38 39 31 27 30 34 29 31 29 29 30 29 30 28 33 35 33 36 29 33 30 30 32 28 28 25 24 24 22 28 26 29 25 26 25 27 28 33 34 31 34 32 32 27 22 19 24 28 20 18 18 23 25 28 40 46 47 48 50 48 48 47 46 47 49 49 51 50 50 51 51 51 52 52 52 52 52 52 52 52 51